Regional Weather Roundup
Issued by NWS

Home | Current Version | Previous Version | Text Only | Print | Product List | Glossary Off
Versions: 1 2 3 4 5 6 7 8 9 10 11 12 13 14 15 16 17 18 19 20 21 22 23 24 25 26 27 28 29 30 31 32 33 34 35 36 37 38 39 40 41 42 43 44 45 46 47 48 49 50

000
ASUS43 KIND 261559
RWRIN

WEATHER ROUNDUP FOR INDIANA
NATIONAL WEATHER SERVICE INDIANAPOLIS IN
1200 PM EDT SUN APR 26 2015

NOTE: "FAIR" INDICATES FEW OR NO CLOUDS BELOW 12,000 FEET WITH NO
SIGNIFICANT WEATHER AND/OR OBSTRUCTIONS TO VISIBILITY.

* - STATION DOES NOT REPORT WEATHER SUCH AS PRECIPITATION OR FOG.

+ - STATION NOT QUALITY CONTROLLED BY THE NATIONAL WEATHER SERVICE.
    USE DATA WITH CAUTION...ESPECIALLY DEWPOINT AND RELATIVE
    HUMIDITY OBSERVATIONS.

INZ001>003-010>013-019-020-261700-
NORTHWEST INDIANA

CITY           SKY/WX    TMP DP  RH WIND       PRES   REMARKS
GARY /AIRPORT/ SUNNY     45  30  57 NE14      30.03R
KNOX *+        SUNNY     50  18  27 N12       29.98S
MONTICELLO +   SUNNY     50  35  56 NE14      29.96S

$$

LMZ046-743>745-261700-
SOUTHERN LAKE MICHIGAN

STATION/POSITION TIME  TEMP    WIND        PRES    WAVE
                       AIR SEA DIR/SP/G            HT
                 (UTC) (F)     (DEG/KT/KT) (MB)    (FT)
BURNS HARBOR     1500   41      20/ 11/ 13 1017.3R
MICHIGAN CITY    1500   40     350/ 15/ 16   N/A
5NW MICH CITY    1500   40 45   10/ 12/ 16   N/A     3

$$

INZ004-005-014>016-021>024-261700-
NORTH CENTRAL INDIANA

CITY           SKY/WX    TMP DP  RH WIND       PRES   REMARKS
GOSHEN         SUNNY     51  32  48 NE12      29.96S
SOUTH BEND     MOSUNNY   54  32  43 N12G22    29.99S
WARSAW +       SUNNY     50  32  50 NE14      29.96S

$$

INZ006>009-017-018-025>027-261700-
NORTHEAST INDIANA

CITY           SKY/WX    TMP DP  RH WIND       PRES   REMARKS
ANGOLA *+      SUNNY     48  34  57 N9        29.94S
FORT WAYNE     MOSUNNY   51  32  48 N13       29.94R

$$

INZ028-029-035-036-043>045-051>053-261700-
WEST CENTRAL INDIANA

CITY           SKY/WX    TMP DP  RH WIND       PRES   REMARKS
CRAWFORDSVL +  SUNNY     49  33  55 N13       29.94S
GREENCASTLE +  SUNNY     52  32  46 N13       29.92S
LAFAYETTE      SUNNY     50  35  56 N14       29.96R
TERRE HAUTE    SUNNY     54  37  52 N10       29.92S

$$

INZ030>032-037>040-046>048-054>057-064-065-261700-
CENTRAL INDIANA

CITY           SKY/WX    TMP DP  RH WIND       PRES   REMARKS
FRANKFORT +    SUNNY     50  38  63 N9        29.96R
GREENWOOD *+   SUNNY     52  32  46 N14       29.92R
INDIANAPOLIS   MOSUNNY   52  32  46 NE13G21   29.91R
-EAGLE CREEK   SUNNY     51  34  52 N13       29.92R
KOKOMO *+      SUNNY     52  36  54 NE12      29.94S
MT COMFORT *+  SUNNY     52  28  40 N9G17     29.92R
SHELBYVILLE    SUNNY     54  36  50 N15       29.90R

$$

INZ033-034-041-042-049-050-058-059-261700-
EAST CENTRAL INDIANA

CITY           SKY/WX    TMP DP  RH WIND       PRES   REMARKS
MUNCIE         SUNNY     50  36  58 NE15      29.92R

$$

INZ060-061-067>069-081>083-085>088-261700-
SOUTHWEST INDIANA

CITY           SKY/WX    TMP DP  RH WIND       PRES   REMARKS
EVANSVILLE     SUNNY     56  36  47 N8        29.90R
HUNTINGBURG *+ SUNNY     55  37  50 N10       29.88R

$$

INZ062-063-066-070>080-084-089>092-261700-
SOUTH CENTRAL AND SOUTHEAST INDIANA

CITY           SKY/WX    TMP DP  RH WIND       PRES   REMARKS
BLOOMINGTON    SUNNY     55  32  41 NE12      29.89R
MADISON *+     SUNNY     54  32  43 N8        29.87R
SEYMOUR +      SUNNY     55  37  50 N14       29.88R

$$




USA.gov is the U.S. government's official web portal to all federal, state and local government web resources and services.